"startDT [UTC]","vpos","CH4 [ppm]","stdev(CH4) [ppm]","CO2 [ppm]","stdev(CO2) [ppm]","H2O_reported [%]","stdev(H2O_reported)","CavityPressure [torr]","CavityTemp [C]","OutletValve","CH4_dry [ppm]","CO2_dry [ppm]","DasTemp [C]","EtalonTemp [C]","WarmBoxTemp [C]","MPVPosition","T_ECpre [C]","T_EC1 [C]","T_EC2 [C]","p_inlet [hPa]","p_in [hPa]","p_out [hPa]","T_inlet [C]","RH_inlet [%]","dwpt_inlet [C]","T_vent [C]","RH_vent [%]","dwpt_vent [C]","flow_vent [l min-1]","flow_inlet [l min-1]","dwpt_sample [C]","T_room [C]"
2015-10-09 00:00:00,0.0,1.98519,0.00347,402.766,0.135,0.4337,0.0015,140.001,44.999,31801.24227,1.99381,404.894,35.081,45.069,45.002,0.00,0.09,-272.75,-272.80,-9,524,-952,21.6,12.9,-8.1,21.8,13.0,-7.8,5.73,2.06,-5.3,27.6
2015-10-09 00:01:00,0.0,1.98566,0.00208,402.801,0.078,0.4343,0.0020,139.998,45.000,31799.83135,1.99411,404.928,35.150,45.070,45.002,0.00,0.09,-272.75,-272.81,-9,524,-952,21.6,12.9,-8.1,21.8,13.0,-7.8,5.73,2.09,-5.3,27.6
2015-10-09 00:02:00,0.0,2.01764,0.02026,403.772,0.603,0.4357,0.0018,140.002,45.001,31801.79399,2.02616,405.914,35.234,45.070,45.002,0.00,0.09,-272.74,-272.80,-9,524,-952,21.6,13.0,-8.0,21.8,13.0,-7.8,5.73,2.02,-5.3,27.6
2015-10-09 00:03:00,0.0,1.97662,0.00561,402.425,0.215,0.4339,0.0017,140.001,45.001,31804.16770,1.98587,404.564,35.335,45.070,45.002,0.00,0.09,-272.74,-272.80,-9,524,-952,21.6,12.9,-8.1,21.9,13.0,-7.8,5.73,1.90,-5.3,27.7
2015-10-09 00:04:00,0.0,1.97041,0.00210,402.172,0.096,0.4333,0.0017,140.003,45.002,31806.98695,1.97906,404.297,35.420,45.070,45.001,0.00,0.09,-272.75,-272.81,-10,524,-953,21.6,12.9,-8.1,21.9,13.0,-7.8,5.73,1.84,-5.3,27.7
2015-10-09 00:05:00,0.0,1.96194,0.00319,401.820,0.131,0.4307,0.0018,140.002,45.002,31809.64147,1.97057,403.933,35.521,45.069,45.001,0.00,0.09,-272.75,-272.80,-9,524,-953,21.7,12.8,-8.1,21.9,12.9,-7.9,5.73,1.93,-5.3,27.7
2015-10-09 00:06:00,0.0,1.96644,0.00364,401.999,0.147,0.4298,0.0019,140.001,45.002,31809.87753,1.97458,404.097,35.607,45.069,45.000,0.00,0.09,-272.74,-272.79,-9,524,-953,21.7,12.8,-8.2,21.9,12.9,-7.9,5.73,2.09,-5.3,27.8
2015-10-09 00:07:00,0.0,1.96743,0.00094,402.087,0.048,0.4298,0.0020,139.998,45.002,31811.57640,1.97588,404.191,35.699,45.068,45.000,0.00,0.09,-272.75,-272.81,-9,524,-953,21.7,12.8,-8.2,21.9,12.8,-7.9,5.73,2.10,-5.3,27.8
2015-10-09 00:08:00,0.0,1.96166,0.00378,401.829,0.148,0.4292,0.0015,139.998,45.002,31814.04626,1.97024,403.933,35.766,45.068,45.000,0.00,0.09,-272.74,-272.82,-9,524,-953,21.7,12.7,-8.2,21.9,12.8,-7.9,5.73,1.95,-5.3,27.8
2015-10-09 00:09:00,0.0,1.96370,0.00230,401.947,0.081,0.4281,0.0023,140.000,45.002,31816.34187,1.97199,404.041,35.847,45.068,45.000,0.00,0.09,-272.73,-272.80,-9,523,-953,21.7,12.7,-8.2,21.9,12.8,-8.0,5.73,1.83,-5.3,27.8
2015-10-09 00:10:00,0.0,1.96798,0.00163,402.103,0.069,0.4297,0.0019,139.998,45.002,31819.41253,1.97623,404.203,35.910,45.068,45.000,0.00,0.09,-272.74,-272.80,-10,524,-953,21.7,12.7,-8.2,21.9,12.8,-8.0,5.73,1.91,-5.2,27.8
2015-10-09 00:11:00,0.0,1.96399,0.00392,401.951,0.150,0.4296,0.0020,140.002,45.002,31823.18738,1.97276,404.062,35.982,45.068,45.000,0.00,0.09,-272.75,-272.81,-10,524,-954,21.7,12.7,-8.2,21.9,12.8,-7.9,5.73,2.07,-5.2,27.8
2015-10-09 00:12:00,0.0,1.95852,0.00130,401.750,0.059,0.4291,0.0015,139.999,45.001,31823.77842,1.96695,403.850,36.072,45.068,45.000,0.00,0.09,-272.75,-272.80,-9,524,-954,21.8,12.7,-8.2,21.9,12.8,-7.9,5.73,2.10,-5.2,27.8
2015-10-09 00:13:00,0.0,1.95759,0.00218,401.694,0.091,0.4288,0.0015,139.999,45.001,31825.07648,1.96586,403.792,36.142,45.068,45.000,0.00,0.09,-272.75,-272.80,-9,524,-954,21.8,12.7,-8.2,22.0,12.8,-7.9,5.73,1.95,-5.2,27.8
2015-10-09 00:14:00,0.0,1.95217,0.00379,401.486,0.156,0.4284,0.0015,140.000,45.001,31829.27723,1.96096,403.589,36.203,45.068,45.000,0.00,0.09,-272.74,-272.81,-9,524,-954,21.8,12.6,-8.2,22.0,12.8,-7.9,5.73,1.82,-5.2,27.8
2015-10-09 00:15:00,0.0,1.94424,0.00075,401.179,0.035,0.4269,0.0016,140.000,45.001,31831.18628,1.95262,403.265,36.249,45.068,45.000,0.00,0.09,-272.75,-272.81,-9,524,-954,21.8,12.6,-8.2,22.0,12.7,-8.0,5.73,1.91,-5.2,27.8
2015-10-09 00:16:00,0.0,1.94316,0.00047,401.138,0.031,0.4266,0.0020,140.000,45.001,31835.00290,1.95143,403.223,36.230,45.068,45.000,0.00,0.09,-272.74,-272.80,-9,524,-954,21.8,12.6,-8.3,22.0,12.7,-8.0,5.73,2.05,-5.2,28.0
2015-10-09 00:17:00,0.0,1.94297,0.00047,401.124,0.035,0.4273,0.0017,140.001,45.000,31836.14576,1.95126,403.212,36.159,45.067,44.999,0.00,0.09,-272.74,-272.80,-9,524,-954,21.8,12.6,-8.3,22.0,12.7,-8.0,5.73,2.07,-5.2,27.9
2015-10-09 00:18:00,0.0,1.94214,0.00044,401.105,0.028,0.4279,0.0013,139.999,44.999,31833.75677,1.95041,403.195,36.061,45.067,44.999,0.00,0.09,-272.75,-272.80,-9,524,-954,21.7,12.7,-8.2,21.9,12.8,-8.0,5.73,2.02,-5.2,27.8
2015-10-09 00:19:00,0.0,1.94166,0.00070,401.071,0.025,0.4282,0.0014,139.996,44.999,31831.02782,1.95001,403.162,35.908,45.067,44.998,0.00,0.09,-272.74,-272.80,-9,524,-953,21.7,12.7,-8.3,21.9,12.8,-8.0,5.73,1.99,-5.2,27.8
2015-10-09 00:20:00,0.0,1.94115,0.00035,401.074,0.026,0.4278,0.0015,139.997,44.998,31823.65535,1.94942,403.163,35.720,45.066,44.998,0.00,0.09,-272.74,-272.80,-9,524,-953,21.7,12.7,-8.3,21.9,12.8,-8.0,5.73,1.97,-5.2,27.7
2015-10-09 00:21:00,0.0,1.94061,0.00057,401.051,0.038,0.4273,0.0017,140.003,44.997,31816.78655,1.94888,403.140,35.498,45.066,44.998,0.00,0.09,-272.75,-272.81,-9,525,-952,21.7,12.7,-8.3,21.9,12.8,-8.0,5.73,1.95,-5.2,27.6
2015-10-09 00:22:00,0.0,1.94067,0.00051,401.044,0.034,0.4268,0.0019,139.999,44.996,31808.71161,1.94891,403.129,35.299,45.066,44.997,0.00,0.09,-272.74,-272.81,-9,524,-952,21.6,12.7,-8.3,21.8,12.8,-8.0,5.73,1.95,-5.2,27.6
2015-10-09 00:23:00,0.0,1.94126,0.00052,401.085,0.033,0.4277,0.0019,139.999,44.996,31800.64975,1.94949,403.172,35.122,45.066,44.998,0.00,0.09,-272.73,-272.81,-9,524,-952,21.6,12.7,-8.3,21.8,12.8,-8.0,5.73,1.96,-5.2,27.6
2015-10-09 00:24:00,0.0,1.94309,0.00085,401.183,0.045,0.4275,0.0013,140.000,44.996,31792.82005,1.95135,403.270,34.971,45.067,44.999,0.00,0.09,-272.74,-272.80,-9,524,-952,21.5,12.8,-8.3,21.8,12.8,-8.0,5.73,1.98,-5.2,27.5
2015-10-09 00:25:00,0.0,1.94310,0.00044,401.189,0.031,0.4265,0.0022,140.000,44.997,31787.39494,1.95133,403.272,34.882,45.067,45.000,0.00,0.09,-272.74,-272.80,-9,524,-952,21.5,12.8,-8.3,21.7,12.8,-8.1,5.73,2.00,-5.2,27.4
2015-10-09 00:26:00,0.0,1.95920,0.01073,402.153,0.903,0.4267,0.0028,140.001,44.998,31785.91203,1.96612,404.179,34.873,45.068,45.001,0.00,0.09,-272.74,-272.80,-9,524,-952,21.5,12.8,-8.3,21.7,12.8,-8.1,5.73,1.98,-5.2,27.4
2015-10-09 00:27:00,0.0,1.99247,0.00214,405.184,0.426,0.4348,0.0023,139.999,44.999,31785.08645,2.00085,407.319,34.893,45.069,45.001,0.00,0.09,-272.74,-272.80,-9,524,-952,21.5,13.0,-8.1,21.7,13.0,-7.9,5.73,1.91,-5.2,27.4
2015-10-09 00:28:00,0.0,2.00471,0.00557,406.344,0.411,0.4377,0.0019,139.999,45.000,31785.34947,2.01334,408.512,34.956,45.070,45.002,0.00,0.09,-272.75,-272.81,-9,523,-952,21.5,13.1,-8.0,21.7,13.1,-7.8,5.73,1.86,-5.2,27.4
2015-10-09 00:29:00,0.0,1.98304,0.00525,403.801,0.561,0.4367,0.0020,139.999,45.001,31788.73593,1.99233,405.991,35.035,45.070,45.002,0.00,0.09,-272.74,-272.80,-9,523,-952,21.5,13.1,-8.0,21.8,13.2,-7.7,5.73,1.89,-5.2,27.5
2015-10-09 00:30:00,0.0,1.97586,0.00145,402.969,0.181,0.4343,0.0017,140.000,45.001,31790.67973,1.98451,405.104,35.134,45.070,45.002,0.00,0.09,-272.74,-272.79,-9,523,-952,21.6,13.0,-8.1,21.8,13.1,-7.8,5.73,1.99,-5.2,27.4
2015-10-09 00:31:00,0.0,1.97227,0.00167,402.682,0.116,0.4326,0.0018,140.000,45.002,31795.13205,1.98087,404.808,35.260,45.070,45.002,0.00,0.09,-272.75,-272.80,-9,523,-952,21.6,12.9,-8.1,21.8,13.0,-7.8,5.73,2.09,-5.2,27.5
2015-10-09 00:32:00,0.0,1.97034,0.00150,402.561,0.083,0.4313,0.0016,140.001,45.002,31797.38700,1.97892,404.677,35.375,45.069,45.001,0.00,0.09,-272.75,-272.80,-9,523,-952,21.6,12.9,-8.1,21.8,13.0,-7.9,5.73,2.08,-5.2,27.5
2015-10-09 00:33:00,0.0,1.96713,0.00080,402.350,0.049,0.4312,0.0016,139.998,45.002,31800.51534,1.97566,404.465,35.483,45.069,45.000,0.00,0.09,-272.74,-272.80,-9,523,-952,21.7,12.8,-8.1,21.8,12.9,-7.9,5.73,1.95,-5.2,27.6
2015-10-09 00:34:00,0.0,1.96414,0.00113,402.152,0.078,0.4306,0.0017,140.004,45.002,31803.99288,1.97267,404.265,35.588,45.069,45.000,0.00,0.09,-272.74,-272.81,-9,523,-953,21.7,12.8,-8.2,21.8,12.9,-7.9,5.73,1.84,-5.2,27.6
2015-10-09 00:35:00,0.0,1.96088,0.00082,402.022,0.045,0.4297,0.0015,140.000,45.002,31805.84765,1.96936,404.127,35.694,45.068,45.000,0.00,0.09,-272.75,-272.81,-9,524,-953,21.7,12.8,-8.2,21.9,12.9,-7.9,5.73,1.90,-5.2,27.7
2015-10-09 00:36:00,0.0,1.95885,0.00102,401.973,0.037,0.4297,0.0016,140.001,45.002,31807.10818,1.96733,404.077,35.783,45.068,45.000,0.00,0.09,-272.74,-272.80,-8,523,-953,21.7,12.8,-8.2,21.9,12.9,-7.9,5.73,2.05,-5.2,27.7
2015-10-09 00:37:00,0.0,1.95319,0.00157,401.735,0.087,0.4298,0.0014,140.001,45.002,31813.22261,1.96178,403.841,35.886,45.068,45.000,0.00,0.09,-272.74,-272.80,-9,523,-953,21.7,12.8,-8.2,21.9,12.9,-7.9,5.73,2.12,-5.2,27.8
2015-10-09 00:38:00,0.0,1.95155,0.00058,401.645,0.045,0.4300,0.0026,140.001,45.002,31816.31325,1.95991,403.748,35.964,45.068,45.000,0.00,0.09,-272.75,-272.81,-9,523,-953,21.7,12.7,-8.2,21.9,12.9,-7.9,5.73,1.97,-5.2,27.8
2015-10-09 00:39:00,0.0,1.95388,0.00195,401.925,0.226,0.4303,0.0014,140.001,45.002,31818.03684,1.96203,404.017,36.022,45.068,45.000,0.00,0.09,-272.74,-272.80,-9,524,-953,21.7,12.7,-8.2,21.9,12.9,-7.9,5.73,1.83,-5.2,27.8
2015-10-09 00:40:00,0.0,1.95470,0.00228,402.133,0.314,0.4315,0.0018,140.002,45.001,31823.54237,1.96330,404.259,36.061,45.068,45.000,0.00,0.09,-272.74,-272.79,-9,524,-953,21.7,12.8,-8.1,21.9,12.9,-7.9,5.73,1.89,-5.2,27.7
2015-10-09 00:41:00,0.0,1.95120,0.00154,401.744,0.224,0.4313,0.0013,140.000,45.001,31822.23505,1.95967,403.856,36.063,45.068,45.000,0.00,0.09,-272.75,-272.80,-9,524,-953,21.7,12.8,-8.2,21.9,12.9,-7.9,5.73,2.01,-5.2,27.8
2015-10-09 00:42:00,0.0,1.95186,0.00251,401.926,0.417,0.4315,0.0017,140.000,45.000,31822.54543,1.96005,404.019,36.015,45.067,44.999,0.00,0.09,-272.75,-272.81,-9,524,-953,21.7,12.8,-8.1,21.9,12.9,-7.9,5.73,2.05,-5.2,27.8
2015-10-09 00:43:00,0.0,1.95328,0.00322,402.254,0.643,0.4330,0.0017,139.999,44.999,31820.80859,1.96193,404.395,35.916,45.067,44.999,0.00,0.09,-272.74,-272.80,-9,524,-953,21.6,12.9,-8.1,21.9,13.0,-7.8,5.73,2.01,-5.2,27.7
2015-10-09 00:44:00,0.0,1.94852,0.00047,401.450,0.041,0.4318,0.0022,140.000,44.999,31819.47603,1.95695,403.563,35.756,45.066,44.998,0.00,0.09,-272.74,-272.80,-9,524,-953,21.7,12.8,-8.1,21.8,12.9,-7.9,5.73,1.98,-5.2,27.6
2015-10-09 00:45:00,0.0,1.94821,0.00059,401.439,0.040,0.4320,0.0020,140.001,44.998,31814.67724,1.95659,403.551,35.559,45.066,44.997,0.00,0.09,-272.75,-272.81,-9,524,-952,21.6,12.8,-8.1,21.8,12.9,-7.9,5.73,1.96,-5.2,27.5
2015-10-09 00:46:00,0.0,1.95019,0.00123,402.095,0.387,0.4317,0.0023,139.998,44.997,31806.55852,1.95847,404.192,35.350,45.066,44.998,0.00,0.09,-272.74,-272.80,-9,524,-952,21.6,12.9,-8.1,21.8,13.0,-7.9,5.73,1.95,-5.2,27.5
2015-10-09 00:47:00,0.0,1.94754,0.00143,401.571,0.311,0.4345,0.0018,139.998,44.997,31799.13533,1.95614,403.714,35.180,45.066,44.998,0.00,0.09,-272.74,-272.80,-9,524,-952,21.6,12.9,-8.1,21.8,13.0,-7.8,5.73,1.97,-5.2,27.5
2015-10-09 00:48:00,0.0,1.94502,0.00135,401.291,0.083,0.4331,0.0015,140.003,44.997,31794.81141,1.95347,403.411,35.055,45.067,44.999,0.00,0.09,-272.75,-272.81,-9,524,-952,21.5,12.9,-8.1,21.8,13.0,-7.8,5.73,1.99,-5.2,27.4
2015-10-09 00:49:00,0.0,1.94698,0.00177,401.615,0.224,0.4332,0.0018,139.998,44.997,31788.43701,1.95527,403.727,34.976,45.067,44.999,0.00,0.09,-272.74,-272.80,-9,524,-952,21.5,13.0,-8.1,21.7,13.1,-7.8,5.73,2.01,-5.2,27.4
2015-10-09 00:50:00,0.0,1.94688,0.00080,401.561,0.030,0.4354,0.0018,140.000,44.998,31786.94115,1.95540,403.690,34.938,45.068,45.000,0.00,0.09,-272.74,-272.80,-9,524,-952,21.5,13.0,-8.0,21.7,13.1,-7.8,5.73,2.01,-5.2,27.3
2015-10-09 00:51:00,0.0,1.94710,0.00111,401.710,0.228,0.4364,0.0016,140.002,44.999,31786.67782,1.95546,403.834,34.966,45.069,45.001,0.00,0.09,-272.74,-272.81,-9,523,-952,21.5,13.1,-8.0,21.7,13.2,-7.7,5.73,1.96,-5.2,27.4
2015-10-09 00:52:00,0.0,1.95008,0.00283,402.243,0.529,0.4384,0.0020,140.001,45.000,31788.05641,1.95867,404.401,35.014,45.070,45.002,0.00,0.09,-272.75,-272.81,-9,524,-952,21.5,13.1,-7.9,21.7,13.2,-7.7,5.73,1.87,-5.2,27.4
2015-10-09 00:53:00,0.0,1.94765,0.00097,401.775,0.298,0.4379,0.0016,140.001,45.001,31789.41906,1.95605,403.907,35.098,45.070,45.002,0.00,0.09,-272.74,-272.80,-9,523,-952,21.5,13.1,-8.0,21.7,13.2,-7.7,5.73,1.86,-5.2,27.5
2015-10-09 00:54:00,0.0,1.95314,0.00255,403.035,0.459,0.4409,0.0028,140.000,45.001,31790.30219,1.96153,405.180,35.199,45.070,45.002,0.00,0.09,-272.74,-272.80,-9,523,-952,21.5,13.2,-7.9,21.7,13.2,-7.7,5.73,1.96,-5.2,27.4
2015-10-09 00:55:00,0.0,1.95421,0.00302,403.104,0.437,0.4432,0.0014,140.003,45.002,31794.60217,1.96275,405.275,35.289,45.070,45.002,0.00,0.09,-272.76,-272.80,-8,523,-952,21.6,13.2,-7.8,21.7,13.4,-7.6,5.73,2.09,-5.2,27.4
2015-10-09 00:56:00,0.0,1.95467,0.00113,403.356,0.137,0.4462,0.0019,140.001,45.002,31797.17974,1.96349,405.552,35.367,45.070,45.001,0.00,0.09,-272.75,-272.80,-8,523,-952,21.6,13.3,-7.7,21.8,13.4,-7.5,5.73,2.09,-5.2,27.5
2015-10-09 00:57:00,0.0,1.95509,0.00145,403.424,0.102,0.4459,0.0018,140.001,45.002,31801.32260,1.96367,405.619,35.465,45.069,45.001,0.00,0.09,-272.74,-272.81,-9,523,-952,21.6,13.3,-7.7,21.8,13.4,-7.4,5.73,1.96,-5.2,27.5
2015-10-09 00:58:00,0.0,1.95447,0.00456,402.985,0.542,0.4445,0.0017,139.999,45.002,31800.80334,1.96308,405.165,35.560,45.069,45.001,0.00,0.09,-272.75,-272.81,-9,524,-952,21.6,13.2,-7.7,21.8,13.4,-7.5,5.73,1.84,-5.2,27.5
2015-10-09 00:59:00,0.0,1.95141,0.00277,402.743,0.332,0.4448,0.0019,139.998,45.002,31804.46918,1.96050,404.948,35.657,45.069,45.001,0.00,0.09,-272.74,-272.80,-9,523,-952,21.7,13.2,-7.7,21.8,13.4,-7.5,5.73,1.90,-5.2,27.6
2015-10-09 01:00:00,0.0,1.94728,0.00180,402.101,0.183,0.4432,0.0014,140.001,45.002,31807.63891,1.95589,404.277,35.760,45.069,45.000,0.00,0.09,-272.74,-272.80,-9,523,-953,21.7,13.2,-7.8,21.9,13.3,-7.5,5.73,2.06,-5.2,27.6
2015-10-09 01:01:00,0.0,1.95715,0.00848,403.078,0.776,0.4441,0.0023,139.999,45.002,31811.06720,1.96507,405.222,35.853,45.068,45.000,0.00,0.09,-272.75,-272.81,-9,523,-953,21.7,13.2,-7.7,21.9,13.3,-7.5,5.73,2.11,-5.2,27.6
2015-10-09 01:02:00,0.0,1.96433,0.00198,404.089,0.089,0.4491,0.0015,140.000,45.002,31815.22285,1.97317,406.301,35.931,45.068,45.000,0.00,0.09,-272.75,-272.81,-9,524,-953,21.8,13.3,-7.6,21.9,13.4,-7.4,5.73,1.97,-5.1,27.7
2015-10-09 01:03:00,0.0,1.96112,0.00498,403.613,0.464,0.4498,0.0015,139.998,45.001,31814.66209,1.97058,405.856,35.974,45.068,45.000,0.00,0.09,-272.74,-272.80,-8,524,-953,21.7,13.3,-7.6,21.9,13.5,-7.3,5.73,1.84,-5.1,27.7
2015-10-09 01:04:00,0.0,1.96042,0.00362,403.873,0.541,0.4496,0.0019,139.998,45.001,31817.43127,1.96868,406.053,36.000,45.068,44.999,0.00,0.09,-272.74,-272.80,-9,524,-953,21.7,13.3,-7.6,21.9,13.4,-7.3,5.73,1.88,-5.1,27.8
2015-10-09 01:05:00,0.0,1.95892,0.00164,404.148,0.056,0.4526,0.0022,140.000,45.000,31818.30663,1.96797,406.380,35.966,45.067,44.999,0.00,0.09,-272.75,-272.81,-9,524,-953,21.7,13.4,-7.5,21.9,13.5,-7.3,5.73,1.97,-5.1,27.8
2015-10-09 01:06:00,0.0,1.95545,0.00115,403.609,0.198,0.4534,0.0012,140.000,45.000,31816.10432,1.96434,405.842,35.892,45.067,44.999,0.00,0.09,-272.74,-272.80,-9,524,-953,21.7,13.5,-7.5,21.9,13.6,-7.3,5.73,2.01,-5.1,27.7
2015-10-09 01:07:00,0.0,1.95399,0.00187,403.697,0.205,0.4533,0.0021,140.000,44.999,31815.21796,1.96304,405.938,35.770,45.066,44.998,0.00,0.09,-272.74,-272.80,-9,524,-953,21.6,13.5,-7.5,21.8,13.6,-7.2,5.73,1.99,-5.1,27.6
2015-10-09 01:08:00,0.0,1.94728,0.00159,402.856,0.327,0.4504,0.0015,140.000,44.998,31812.80471,1.95603,405.065,35.592,45.066,44.998,0.00,0.09,-272.75,-272.81,-9,524,-952,21.6,13.5,-7.5,21.8,13.6,-7.3,5.73,1.97,-5.1,27.5
2015-10-09 01:09:00,0.0,1.94579,0.00216,402.715,0.423,0.4511,0.0018,139.999,44.997,31804.64754,1.95474,404.949,35.411,45.066,44.998,0.00,0.09,-272.75,-272.80,-9,524,-952,21.6,13.4,-7.6,21.8,13.6,-7.3,5.73,1.96,-5.1,27.5
2015-10-09 01:10:00,0.0,1.93930,0.00186,401.591,0.297,0.4480,0.0024,140.001,44.997,31798.50693,1.94809,403.795,35.237,45.066,44.998,0.00,0.09,-272.74,-272.79,-9,524,-952,21.6,13.4,-7.7,21.8,13.5,-7.4,5.73,1.96,-5.1,27.5
2015-10-09 01:11:00,0.0,1.94110,0.00116,401.853,0.197,0.4458,0.0022,139.999,44.997,31791.55977,1.94966,404.026,35.087,45.066,44.998,0.00,0.09,-272.75,-272.81,-9,524,-952,21.6,13.3,-7.7,21.7,13.4,-7.5,5.73,1.99,-5.1,27.5
2015-10-09 01:12:00,0.0,1.94081,0.00070,401.885,0.091,0.4468,0.0014,139.998,44.997,31785.95846,1.94953,404.080,34.969,45.067,44.999,0.00,0.09,-272.75,-272.81,-9,524,-951,21.5,13.4,-7.8,21.7,13.5,-7.5,5.73,2.01,-5.1,27.4
2015-10-09 01:13:00,0.0,1.93835,0.00081,401.423,0.120,0.4448,0.0019,139.998,44.998,31781.14731,1.94706,403.607,34.893,45.068,45.000,0.00,0.09,-272.74,-272.80,-9,524,-951,21.4,13.3,-7.8,21.7,13.5,-7.5,5.73,2.03,-5.1,27.3
2015-10-09 01:14:00,0.0,1.93741,0.00148,401.324,0.228,0.4430,0.0018,139.999,44.998,31780.26644,1.94592,403.487,34.877,45.068,45.001,0.00,0.09,-272.74,-272.80,-9,523,-951,21.4,13.3,-7.9,21.7,13.4,-7.6,5.73,2.03,-5.1,27.3
2015-10-09 01:15:00,0.0,1.93484,0.00119,401.069,0.146,0.4430,0.0021,140.001,44.999,31779.73268,1.94353,403.242,34.919,45.069,45.002,0.00,0.09,-272.75,-272.81,-9,523,-951,21.5,13.3,-7.9,21.7,13.4,-7.6,5.73,1.97,-5.1,27.3
2015-10-09 01:16:00,0.0,1.93521,0.00098,401.109,0.172,0.4422,0.0014,139.998,45.000,31781.19820,1.94369,403.268,34.979,45.070,45.002,0.00,0.09,-272.74,-272.81,-9,523,-952,21.5,13.2,-7.8,21.7,13.3,-7.6,5.73,1.88,-5.1,27.4
2015-10-09 01:17:00,0.0,1.93586,0.00243,401.220,0.322,0.4421,0.0017,139.999,45.001,31783.99373,1.94424,403.371,35.054,45.070,45.002,0.00,0.09,-272.74,-272.81,-9,523,-952,21.5,13.2,-7.8,21.7,13.4,-7.6,5.73,1.86,-5.1,27.4
2015-10-09 01:18:00,0.0,1.93787,0.00131,401.470,0.167,0.4446,0.0015,140.000,45.001,31786.25898,1.94649,403.645,35.149,45.070,45.002,0.00,0.09,-272.74,-272.80,-10,523,-952,21.6,13.3,-7.8,21.7,13.4,-7.5,5.73,1.95,-5.1,27.4
2015-10-09 01:19:00,0.0,1.93728,0.00084,401.391,0.106,0.4445,0.0016,140.001,45.002,31790.47890,1.94587,403.569,35.254,45.070,45.002,0.00,0.09,-272.75,-272.80,-10,523,-952,21.6,13.3,-7.7,21.8,13.4,-7.5,5.73,2.09,-5.1,27.5
2015-10-09 01:20:00,0.0,1.93780,0.00052,401.430,0.080,0.4445,0.0015,140.002,45.002,31797.54434,1.94643,403.607,35.340,45.070,45.001,0.00,0.09,-272.74,-272.80,-9,524,-952,21.6,13.3,-7.7,21.8,13.4,-7.5,5.73,2.09,-5.1,27.5
2015-10-09 01:21:00,0.0,1.93441,0.00139,401.179,0.085,0.4447,0.0013,139.999,45.002,31799.59321,1.94314,403.356,35.379,45.069,45.001,0.00,0.09,-272.74,-272.80,-9,523,-952,21.6,13.3,-7.7,21.8,13.4,-7.5,5.73,1.98,-5.1,27.5
2015-10-09 01:22:00,0.0,1.93466,0.00087,401.292,0.125,0.4457,0.0015,139.997,45.002,31799.79512,1.94310,403.463,35.401,45.069,45.000,0.00,0.09,-272.75,-272.80,-9,524,-953,21.5,13.3,-7.7,21.7,13.4,-7.5,5.73,1.91,-5.1,27.5
2015-10-09 01:23:00,0.0,1.94462,0.00426,402.190,0.302,0.4464,0.0016,140.000,45.001,31800.93949,1.95282,404.360,35.385,45.068,44.999,0.00,0.09,-272.74,-272.80,-9,524,-952,21.5,13.4,-7.7,21.7,13.5,-7.4,5.73,1.90,-5.1,27.5
2015-10-09 01:24:00,0.0,1.96071,0.00564,403.521,0.457,0.4496,0.0026,139.999,45.000,31800.51658,1.96890,405.706,35.324,45.067,44.998,0.00,0.09,-272.74,-272.80,-9,522,-952,21.4,13.5,-7.6,21.7,13.6,-7.4,5.73,1.92,-5.1,27.4
2015-10-09 01:25:00,0.0,2.00479,0.02145,404.033,0.407,0.4527,0.0018,140.002,44.999,31796.22932,2.01167,406.251,35.228,45.067,44.998,0.00,0.09,-272.75,-272.81,-8,526,-952,21.4,13.6,-7.5,21.7,13.7,-7.3,5.73,1.95,-5.1,27.3
2015-10-09 01:26:00,0.0,2.03606,0.00680,404.830,0.180,0.4542,0.0017,140.000,44.999,31791.59834,2.04498,407.076,35.111,45.066,44.998,0.00,0.09,-272.74,-272.81,-9,523,-954,21.4,13.7,-7.5,21.7,13.8,-7.2,5.73,1.96,-5.1,27.3
2015-10-09 01:27:00,0.0,2.05266,0.00943,404.763,0.271,0.4560,0.0019,139.998,44.998,31786.69723,2.06201,407.012,34.987,45.066,44.998,0.00,0.09,-272.74,-272.80,-9,523,-952,21.4,13.7,-7.4,21.6,13.8,-7.2,5.73,1.97,-5.1,27.2
2015-10-09 01:28:00,0.0,2.03444,0.00939,404.270,0.291,0.4557,0.0018,140.000,44.998,31782.81440,2.04389,406.520,34.871,45.066,44.998,0.00,0.09,-272.75,-272.80,-9,523,-951,21.4,13.7,-7.4,21.6,13.8,-7.2,5.73,1.97,-5.1,27.3
2015-10-09 01:29:00,0.0,2.04752,0.00431,404.500,0.101,0.4566,0.0020,139.999,44.998,31778.63736,2.05624,406.743,34.780,45.066,44.998,0.00,0.09,-272.74,-272.81,-9,523,-951,21.4,13.8,-7.4,21.6,13.9,-7.2,5.73,1.96,-5.1,27.2
2015-10-09 01:30:00,0.0,2.06069,0.00314,404.918,0.110,0.4567,0.0014,139.999,44.998,31773.75906,2.06989,407.169,34.736,45.067,44.999,0.00,0.09,-272.74,-272.80,-9,523,-951,21.3,13.8,-7.4,21.5,13.9,-7.2,5.73,1.97,-5.1,27.2
2015-10-09 01:31:00,0.0,2.04291,0.02081,404.440,0.614,0.4572,0.0016,139.998,44.998,31770.06561,2.05342,406.714,34.701,45.068,45.000,0.00,0.09,-272.74,-272.80,-9,523,-951,21.3,13.8,-7.5,21.5,13.9,-7.2,5.73,2.01,-5.1,27.2
2015-10-09 01:32:00,0.0,2.04792,0.00724,404.487,0.197,0.4571,0.0020,140.002,44.999,31773.17703,2.05684,406.734,34.748,45.069,45.001,0.00,0.09,-272.75,-272.81,-9,523,-951,21.4,13.8,-7.4,21.6,13.9,-7.2,5.73,2.07,-5.1,27.2
2015-10-09 01:33:00,0.0,2.05288,0.00394,404.613,0.115,0.4571,0.0015,139.999,45.000,31773.94709,2.06173,406.860,34.812,45.070,45.002,0.00,0.09,-272.75,-272.80,-9,523,-951,21.4,13.8,-7.4,21.6,13.9,-7.1,5.73,2.08,-5.1,27.2
2015-10-09 01:34:00,0.0,2.04096,0.01419,404.332,0.387,0.4562,0.0021,140.000,45.001,31776.51906,2.05026,406.579,34.913,45.070,45.002,0.00,0.09,-272.75,-272.81,-8,522,-951,21.4,13.8,-7.4,21.6,13.9,-7.2,5.73,2.00,-5.1,27.2
2015-10-09 01:35:00,0.0,2.04694,0.01099,404.531,0.252,0.4581,0.0017,140.000,45.001,31780.71860,2.05770,406.808,35.016,45.070,45.002,0.00,0.09,-272.75,-272.81,-9,523,-951,21.5,13.8,-7.4,21.6,13.9,-7.1,5.73,1.87,-5.1,27.3
2015-10-09 01:36:00,0.0,1.99902,0.03150,403.205,0.940,0.4550,0.0021,140.001,45.002,31782.59044,2.00980,405.469,35.109,45.070,45.002,0.00,0.09,-272.75,-272.80,-9,523,-951,21.5,13.7,-7.4,21.7,13.9,-7.1,5.73,1.85,-5.1,27.3
2015-10-09 01:37:00,0.0,1.96646,0.01025,402.218,0.350,0.4524,0.0022,140.001,45.002,31785.41809,1.97560,404.441,35.220,45.070,45.002,0.00,0.09,-272.74,-272.80,-9,523,-952,21.5,13.6,-7.5,21.7,13.7,-7.2,5.73,1.98,-5.1,27.3
2015-10-09 01:38:00,0.0,1.95171,0.00769,401.666,0.313,0.4490,0.0017,140.000,45.002,31787.47144,1.95995,403.853,35.301,45.069,45.001,0.00,0.09,-272.75,-272.80,-9,523,-952,21.5,13.4,-7.6,21.7,13.6,-7.3,5.73,2.09,-5.1,27.4
2015-10-09 01:39:00,0.0,1.97593,0.00329,402.681,0.141,0.4511,0.0023,140.000,45.002,31790.90560,1.98446,404.887,35.347,45.069,45.000,0.00,0.09,-272.75,-272.80,-9,523,-952,21.5,13.5,-7.6,21.7,13.6,-7.3,5.73,2.07,-5.1,27.4
2015-10-09 01:40:00,0.0,1.98275,0.00709,402.992,0.312,0.4533,0.0018,140.003,45.002,31794.37924,1.99144,405.214,35.364,45.068,44.999,0.00,0.09,-272.74,-272.80,-9,523,-952,21.5,13.6,-7.5,21.7,13.7,-7.3,5.73,2.01,-5.1,27.4
2015-10-09 01:41:00,0.0,1.99145,0.00485,403.371,0.228,0.4554,0.0021,139.998,45.001,31793.23186,2.00051,405.608,35.311,45.068,44.999,0.00,0.09,-272.74,-272.80,-9,523,-952,21.5,13.7,-7.4,21.6,13.8,-7.2,5.73,1.96,-5.1,27.4
2015-10-09 01:42:00,0.0,1.98289,0.00275,403.007,0.118,0.4530,0.0020,139.999,45.001,31790.45965,1.99206,405.235,35.230,45.067,44.998,0.00,0.09,-272.75,-272.81,-9,523,-952,21.5,13.7,-7.5,21.6,13.8,-7.2,5.73,1.96,-5.1,27.3
2015-10-09 01:43:00,0.0,1.97788,0.00323,402.861,0.129,0.4531,0.0018,140.000,44.999,31789.23715,1.98702,405.092,35.103,45.066,44.998,0.00,0.09,-272.74,-272.81,-9,523,-951,21.5,13.6,-7.5,21.6,13.8,-7.3,5.73,1.97,-5.1,27.2
2015-10-09 01:44:00,0.0,1.97315,0.00474,402.634,0.192,0.4512,0.0014,140.000,44.998,31783.01606,1.98208,404.850,34.973,45.066,44.998,0.00,0.09,-272.74,-272.80,-9,523,-951,21.4,13.6,-7.5,21.6,13.7,-7.3,5.73,1.97,-5.1,27.2
2015-10-09 01:45:00,0.0,1.97763,0.00909,402.840,0.432,0.4503,0.0021,140.000,44.998,31777.10207,1.98575,405.031,34.882,45.066,44.998,0.00,0.09,-272.74,-272.81,-9,524,-951,21.4,13.6,-7.6,21.6,13.7,-7.3,5.73,1.96,-5.1,27.2